Regional Weather Roundup
Issued by NWS

Home | Current Version | Previous Version | Text Only | Print | Product List | Glossary Off
Versions: 1 2 3 4 5 6 7 8 9 10 11 12 13 14 15 16 17 18 19 20 21 22 23 24 25 26 27 28 29 30 31 32 33 34 35 36 37 38 39 40 41 42 43 44 45 46 47 48 49 50

000
ASUS43 KMPX 120310
RWRMN
WEATHER ROUNDUP FOR MINNESOTA
NATIONAL WEATHER SERVICE TWIN CITIES/CHANHASSEN MN
900 PM CST MON DEC 11 2017


NOTE: "FAIR" INDICATES FEW OR NO CLOUDS BELOW 12,000 FEET WITH NO
SIGNIFICANT WEATHER AND/OR OBSTRUCTIONS TO VISIBILITY. N/A MEANS
CURRENT SKY AND/OR WEATHER CONDITIONS ARE NOT AVAILABLE.

MNZ060>063-068>070-120400-
   Twin Cities Metro

CITY           SKY/WX    TMP DP  RH WIND       PRES   REMARKS
TWIN CITIES    CLEAR     21  12  68 N17       30.19R WCI   7
ST PAUL        CLEAR     20  11  68 NW15      30.20R WCI   6
CRYSTAL        CLEAR     20   7  57 NW17      30.19R WCI   5
BLAINE         CLEAR     21  12  68 NW14      30.18R WCI   8
LAKEVILLE      CLEAR     19  12  73 NW16G22   30.17R WCI   5
EDEN PRAIRIE   CLEAR     22  10  60 NW14G25   30.18R WCI   9
SOUTH ST PAUL  CLEAR     22  12  64 NW12G23   30.18R WCI  10
LAKE ELMO      FAIR      21  10  63 NW13G18   30.18R WCI   9
$$
MNZ001>005-007-008-013>017-022>024-027-028-120400-
   Northwest Minnesota

CITY           SKY/WX    TMP DP  RH WIND       PRES   REMARKS
BEMIDJI        CLOUDY     3  -1  83 NW10      30.25S WCI -13
HALLOCK        CLOUDY     3   1  92 SW5       30.32F WCI  -6
ROSEAU         CLEAR      3   0  85 W7        30.29S WCI  -9
WARROAD        CLOUDY     1   0  92 SW5       30.28S WCI  -8
THIEF RVR FALL CLEAR      4   0  83 NW5       30.31F WCI  -5
CROOKSTON      CLOUDY     3   0  85 N5        30.35F WCI  -6
FOSSTON        CLOUDY     1  -2  85 NW5       30.31R WCI  -8
DETROIT LAKES  LGT SNOW   7   5  92 N12       30.30R WCI  -9
MOORHEAD       CLOUDY     7   1  78 CALM      30.36S
PARK RAPIDS    CLOUDY     6   1  80 NW10      30.24R WCI  -9
MAHNOMEN       FAIR       3  -1  85 NW10      30.30S WCI -12
$$
MNZ006-009>011-018-025>026-120400-
   North Central Minnesota

CITY           SKY/WX    TMP DP  RH WIND       PRES   REMARKS
BAUDETTE       CLEAR      4   0  83 NW13      30.24R WCI -13
FLAG ISLAND    CLEAR      3   0  85 NW13      30.23F WCI -14
INTL FALLS     CLEAR      5   0  79 NW9       30.20R WCI  -9
WASKISH        CLOUDY     5   1  85 NW7       30.26R WCI  -7
LONGVILLE      FLURRIES   9   3  78 NW8       30.22R WCI  -4
GRAND RAPIDS   FLURRIES   9   3  77 NW18      30.20R WCI -10
CRANE LAKE     PTCLDY     7   1  78 NW10G18   30.18R WCI  -8
ORR            CLOUDY     9   1  72 NW12      30.13S WCI  -6
COOK           CLOUDY     9   1  72 NW12G23   30.15R WCI  -6
WALKER         FAIR       5   1  80 NW10      30.23S WCI -10
$$
MNZ012-019>021-037-120400-
   Northeast Minnesota

CITY           SKY/WX    TMP DP  RH WIND       PRES   REMARKS
DULUTH         MOCLDY    12   5  73 NW10G22   30.08R WCI  -1
ELY            CLOUDY     9   1  72 NW13G23   30.09R WCI  -7
HIBBING        MOCLDY     9   2  73 NW24G30   30.14R WCI -12
EVELETH        CLOUDY    10   1  69 NW16G25   30.13R WCI  -8
DULUTH HARBOR  MOCLDY    18   9  68 NW17G25   30.16S WCI   2
TWO HARBORS    MOCLDY    16   7  67 NW12G18   30.08R WCI   3
SILVER BAY     CLEAR     10   3  72 NW5G17    30.07S WCI   2
GRAND MARAIS     N/A     12  -1  56 N12G25    30.10R WCI  -2
G MARAIS ARPRT CLOUDY     5  -4  66 NW17G26   29.97R WCI -14
$$
MNZ029>031-032-039>041-046>048-054>057-064-120400-
   West Central Minnesota

CITY           SKY/WX    TMP DP  RH WIND       PRES   REMARKS
FERGUS FALLS   CLOUDY     9   3  78 N13       30.36R WCI  -7
WHEATON        CLEAR     12   9  85 NW8       30.37R WCI   1
MORRIS         CLEAR     12   7  79 NW20      30.30R WCI  -6
ALEXANDRIA     CLEAR      9   4  80 NW12      30.26R WCI  -6
ELBOW LAKE     FAIR      10   6  84 NW14      30.31R WCI  -7
WADENA         CLOUDY     5   1  85 NW10      30.25R WCI -10
GLENWOOD       CLEAR     10   7  85 NW12      30.26R WCI  -4
APPLETON       CLEAR     16   7  67 N13G20    30.33R WCI   2
BENSON         CLEAR     12   7  79 N10G17    30.31S WCI  -1
ORTONVILLE     CLEAR     14   9  79 N10G18    30.33S WCI   1
MADISON        CLEAR     18  12  79 N12       30.34R WCI   5
WILLMAR        FAIR      12  10  92 NW12      30.27S WCI  -2
$$
MNZ033>034-036-042>043-049>051-058-059-120400-
   Central Minnesota

CITY           SKY/WX    TMP DP  RH WIND       PRES   REMARKS
ST CLOUD       CLEAR     15   9  76 NW17      30.21R WCI  -1
SAUK CENTRE    FAIR      10   5  79 NW16      30.24S WCI  -7
PAYNESVILLE    PTCLDY    12   9  85 NW9G17    30.25R WCI   0
AITKIN         FLURRIES  12   7  79 NW9G16    30.18R WCI   0
PINE RIVER     FLURRIES   9   3  78 NW10G16   30.25R WCI  -6
BRAINERD       MOCLDY    11   5  77 NW9       30.22R WCI  -2
STAPLES        CLEAR      7   1  78 NW10      30.24R WCI  -8
LONG PRAIRIE   FAIR      10   5  79 W10       30.24R WCI  -3
LITTLE FALLS   CLEAR     14   3  62 NW7       30.23R WCI   4
LITCHFIELD     CLEAR     16  10  79 NW13G18   30.24R WCI   2
BUFFALO        CLEAR     19  12  73 NW12      30.22R WCI   7
MAPLE LAKE     CLEAR     19  13  80 NW12G17   30.22R WCI   6
HUTCHINSON     CLOUDY    17  11  80 NW18G25   30.24R WCI   0
$$
MNZ037-044-045-052-053-120400-
   East Central Minnesota

CITY           SKY/WX    TMP DP  RH WIND       PRES   REMARKS
PRINCETON      CLEAR     16   9  73 NW10      30.19S WCI   3
MORA           CLEAR     14   9  79 N10G16    30.19R WCI   1
CAMBRIDGE      CLEAR     19   9  63 NW6       30.19R WCI  11
RUSH CITY      CLEAR     16   8  68 NW6       30.18R WCI   8
MOOSE LAKE     PTCLDY    14   7  73 NW10G18   30.14R WCI   1
HINCKLEY       FAIR      18   9  68 NW10G18   30.16R WCI   6
CLOQUET        CLEAR     12   5  73 NW12G21   30.11S WCI  -2
MCGREGOR       CLEAR     14   9  79 NW9       30.17R WCI   2
$$
MNZ071>073-080-081-089-090-097-098-120400-
   Southwest Minnesota

CITY           SKY/WX    TMP DP  RH WIND       PRES   REMARKS
MONTEVIDEO     CLEAR     12   9  85 N13G20    30.31S WCI  -3
GRANITE FALLS  CLEAR     16  10  75 NW15      30.33R WCI   1
CANBY          CLEAR     17  13  84 W6        30.34R WCI   8
MARSHALL       CLEAR     16   9  74 N17G26    30.31R WCI   0
REDWOOD FALLS  CLEAR     15   8  73 NW14G24   30.28R WCI   0
OLIVIA         CLEAR     16  10  79 NW15      30.27R WCI   1
PIPESTONE      CLEAR     18  12  79 N8        30.28R WCI   7
WINDOM           N/A     16   3  57 NW24G31   30.25R WCI  -3
WORTHINGTON    CLEAR     17  11  77 N25G31    30.25R WCI  -1
JACKSON        CLEAR     18  12  79 MISG      30.24R
TRACY          CLEAR     17  11  78 N16       30.28S WCI   2
SLAYTON        CLEAR     17  10  74 N22G32    30.28R WCI  -1
$$
MNZ065>067-074>077-082>085-091>093-120400-
   South Central Minnesota

CITY           SKY/WX    TMP DP  RH WIND       PRES   REMARKS
MANKATO        CLEAR     20  15  81 NW16      30.21R WCI   6
NEW ULM        CLEAR     16  10  79 NW22G29   30.25R WCI  -2
ST JAMES       CLEAR     16  12  86 NW21      30.26R WCI  -2
FAIRMONT       PTCLDY    17  12  80 NW25G33   30.22R WCI  -1
GLENCOE        CLEAR     19  15  82 NW14      30.22R WCI   6
FARIBAULT      CLEAR     21  12  68 NW13      30.17R WCI   9
OWATONNA       CLEAR     21  12  68 NW20G30   30.15R WCI   6
WASECA         CLEAR     23  16  74 NW15      30.19R WCI  10
ALBERT LEA     PTCLDY    23  14  68 N13G23    30.15R WCI  11
$$
MNZ078>079-086>088-094>096-120400-
   Southeast Minnesota

CITY           SKY/WX    TMP DP  RH WIND       PRES   REMARKS
ROCHESTER      PTCLDY    21  13  71 N22G32    30.09R WCI   5
RED WING       CLEAR     23   9  54 NW8G18    30.15R WCI  14
STANTON        CLEAR     23  13  66 NW14      30.16R WCI  10
DODGE CENTER   MOCLDY    21  16  79 NW17      30.11R WCI   7
WINONA         PTCLDY    25  14  63 N15G25    30.11R WCI  12
AUSTIN         CLEAR     21  12  68 N20G26    30.13R WCI   6
PRESTON        CLOUDY    24  15  69 N17G24    30.07R WCI  10
$$
ABBREVIATIONS USED IN REMARKS
   TC - TEMPERATURES IN CELSIUS
  WCI - WIND CHILL INDEX
   HX - HEAT INDEX
  VSB - VISIBILITY
$$




USA.gov is the U.S. government's official web portal to all federal, state and local government web resources and services.